• In Schweiz
  • Länderverzeichnis
  • Für 7 Tage
  • Wassertemperatur
  • Satellitenkarten
  • Wetterkarte
  • Widgets
  • user-avatar
    Anmelden

    Stündliche Wetter Serhiivka

    Heute, 20 September, Donnerstag

    Zeit Temperatur Niederschläge Wind Luftdruck Luftfeuchtigkeit
    00:00 +20°C° 0 mm 1 m/S 753 mmHg 55%
    01:00 +19°C° 0 mm 1 m/S 753 mmHg 56%
    02:00 +19°C° 0 mm 1 m/S 753 mmHg 56%
    03:00 +19°C° 0 mm 1 m/S 753 mmHg 57%
    04:00 +19°C° 0 mm 1 m/S 753 mmHg 58%
    05:00 +18°C° 0 mm 1 m/S 753 mmHg 59%
    06:00 +20°C° 0 mm 1 m/S 753 mmHg 55%
    07:00 +21°C° 0 mm 1 m/S 753 mmHg 51%
    08:00 +23°C° 0 mm 1 m/S 753 mmHg 46%
    09:00 +24°C° 0 mm 1 m/S 753 mmHg 43%
    10:00 +26°C° 0 mm 1 m/S 753 mmHg 39%
    11:00 +27°C° 0 mm 1 m/S 753 mmHg 35%
    12:00 +27°C° 0 mm 2 m/S 753 mmHg 33%
    13:00 +28°C° 0 mm 2 m/S 752 mmHg 31%
    14:00 +29°C° 0 mm 2 m/S 752 mmHg 29%
    15:00 +28°C° 0 mm 2 m/S 752 mmHg 32%
    16:00 +27°C° 0 mm 2 m/S 752 mmHg 35%
    17:00 +26°C° 0 mm 2 m/S 751 mmHg 38%
    18:00 +25°C° 0 mm 2 m/S 751 mmHg 41%
    19:00 +24°C° 0 mm 2 m/S 751 mmHg 43%
    20:00 +21°C° 0 mm 2 m/S 751 mmHg 46%
    21:00 +21°C° 0 mm 2 m/S 751 mmHg 47%
    22:00 +21°C° 0 mm 2 m/S 751 mmHg 49%
    23:00 +20°C° 0 mm 2 m/S 751 mmHg 50%

    Morgen, 21 September, Freitag

    Zeit Temperatur Niederschläge Wind Luftdruck Luftfeuchtigkeit
    00:00 +20°C° 0 mm 2 m/S 751 mmHg 52%
    01:00 +20°C° 0 mm 2 m/S 751 mmHg 55%
    02:00 +19°C° 0 mm 2 m/S 751 mmHg 57%
    03:00 +19°C° 0 mm 2 m/S 751 mmHg 59%
    04:00 +19°C° 0 mm 3 m/S 751 mmHg 62%
    05:00 +19°C° 0 mm 3 m/S 751 mmHg 64%
    06:00 +20°C° 0 mm 3 m/S 751 mmHg 60%
    07:00 +22°C° 0 mm 3 m/S 751 mmHg 56%
    08:00 +24°C° 0 mm 3 m/S 752 mmHg 53%
    09:00 +25°C° 0 mm 3 m/S 752 mmHg 48%
    10:00 +27°C° 0 mm 3 m/S 752 mmHg 44%
    11:00 +28°C° 0 mm 3 m/S 752 mmHg 40%
    12:00 +28°C° 0 mm 2 m/S 752 mmHg 38%
    13:00 +29°C° 0 mm 2 m/S 751 mmHg 36%
    14:00 +29°C° 0 mm 2 m/S 751 mmHg 34%
    15:00 +28°C° 0 mm 2 m/S 751 mmHg 37%
    16:00 +28°C° 0 mm 2 m/S 751 mmHg 40%
    17:00 +27°C° 0 mm 2 m/S 751 mmHg 43%
    18:00 +26°C° 0 mm 1 m/S 751 mmHg 46%
    19:00 +24°C° 0 mm 1 m/S 751 mmHg 49%
    20:00 +23°C° 0 mm 1 m/S 751 mmHg 52%
    21:00 +23°C° 0 mm 1 m/S 751 mmHg 53%
    22:00 +21°C° 0 mm 2 m/S 751 mmHg 53%
    23:00 +21°C° 0 mm 2 m/S 751 mmHg 54%

    übermorgen, 22 September, Samstag

    Zeit Temperatur Niederschläge Wind Luftdruck Luftfeuchtigkeit
    00:00 +21°C° 0 mm 2 m/S 751 mmHg 54%
    01:00 +20°C° 0 mm 3 m/S 751 mmHg 55%
    02:00 +20°C° 0 mm 3 m/S 751 mmHg 55%
    03:00 +20°C° 0 mm 3 m/S 751 mmHg 56%
    04:00 +19°C° 0 mm 3 m/S 751 mmHg 57%
    05:00 +19°C° 0 mm 3 m/S 751 mmHg 58%
    06:00 +20°C° 0 mm 3 m/S 751 mmHg 56%
    07:00 +21°C° 0 mm 3 m/S 751 mmHg 53%
    08:00 +23°C° 0 mm 4 m/S 751 mmHg 50%
    09:00 +25°C° 0 mm 3 m/S 751 mmHg 46%
    10:00 +26°C° 0 mm 3 m/S 751 mmHg 42%
    11:00 +28°C° 0 mm 3 m/S 751 mmHg 39%
    12:00 +28°C° 0 mm 3 m/S 751 mmHg 37%
    13:00 +28°C° 0 mm 3 m/S 750 mmHg 35%
    14:00 +29°C° 0 mm 3 m/S 750 mmHg 34%
    15:00 +28°C° 0 mm 3 m/S 750 mmHg 36%
    16:00 +27°C° 0 mm 2 m/S 750 mmHg 38%
    17:00 +26°C° 0 mm 2 m/S 749 mmHg 40%
    18:00 +25°C° 0 mm 2 m/S 749 mmHg 42%
    19:00 +24°C° 0 mm 2 m/S 750 mmHg 44%
    20:00 +23°C° 0 mm 1 m/S 750 mmHg 46%
    21:00 +22°C° 0 mm 1 m/S 750 mmHg 46%
    22:00 +22°C° 0 mm 1 m/S 749 mmHg 47%
    23:00 +21°C° 0 mm 1 m/S 749 mmHg 47%

    23 September, Sonntag

    Zeit Temperatur Niederschläge Wind Luftdruck Luftfeuchtigkeit
    00:00 +21°C° 0 mm 1 m/S 749 mmHg 48%
    01:00 +21°C° 0 mm 1 m/S 749 mmHg 49%
    02:00 +20°C° 0 mm 1 m/S 749 mmHg 50%
    03:00 +20°C° 0 mm 1 m/S 749 mmHg 51%
    04:00 +20°C° 0 mm 1 m/S 748 mmHg 53%
    05:00 +19°C° 0 mm 1 m/S 748 mmHg 55%
    06:00 +21°C° 0 mm 1 m/S 748 mmHg 51%
    07:00 +21°C° 0 mm 2 m/S 748 mmHg 48%
    08:00 +24°C° 0 mm 2 m/S 748 mmHg 44%
    09:00 +25°C° 0 mm 3 m/S 748 mmHg 40%
    10:00 +27°C° 0 mm 4 m/S 747 mmHg 36%
    11:00 +28°C° 0 mm 4 m/S 747 mmHg 33%
    12:00 +28°C° 0 mm 5 m/S 747 mmHg 33%
    13:00 +28°C° 0 mm 6 m/S 747 mmHg 33%
    14:00 +28°C° 0 mm 7 m/S 747 mmHg 34%
    15:00 +24°C° 0.1 mm 7 m/S 747 mmHg 45%
    16:00 +21°C° 0.1 mm 7 m/S 747 mmHg 56%
    17:00 +17°C° 0.1 mm 8 m/S 748 mmHg 67%
    18:00 +15°C° 0.1 mm 8 m/S 748 mmHg 66%
    19:00 +14°C° 0.1 mm 7 m/S 749 mmHg 64%
    20:00 +12°C° 0.1 mm 7 m/S 749 mmHg 63%
    21:00 +13°C° 0 mm 6 m/S 750 mmHg 64%
    22:00 +12°C° 0 mm 5 m/S 750 mmHg 64%
    23:00 +12°C° 0 mm 4 m/S 750 mmHg 65%

    24 September, Montag

    Zeit Temperatur Niederschläge Wind Luftdruck Luftfeuchtigkeit
    00:00 +12°C° 0 mm 4 m/S 750 mmHg 67%
    01:00 +12°C° 0 mm 3 m/S 751 mmHg 68%
    02:00 +11°C° 0 mm 3 m/S 751 mmHg 69%
    03:00 +12°C° 0 mm 2 m/S 751 mmHg 70%
    04:00 +12°C° 0 mm 2 m/S 751 mmHg 71%
    05:00 +11°C° 0 mm 1 m/S 751 mmHg 73%
    06:00 +13°C° 0 mm 1 m/S 751 mmHg 67%
    07:00 +14°C° 0 mm 1 m/S 751 mmHg 61%
    08:00 +15°C° 0 mm 1 m/S 751 mmHg 55%
    09:00 +17°C° 0 mm 2 m/S 751 mmHg 50%
    10:00 +18°C° 0 mm 2 m/S 750 mmHg 44%
    11:00 +19°C° 0 mm 3 m/S 750 mmHg 39%
    12:00 +19°C° 0 mm 3 m/S 750 mmHg 38%
    13:00 +20°C° 0 mm 4 m/S 749 mmHg 36%
    14:00 +20°C° 0 mm 4 m/S 749 mmHg 35%
    15:00 +19°C° 0 mm 4 m/S 748 mmHg 37%
    16:00 +18°C° 0 mm 4 m/S 747 mmHg 39%
    17:00 +18°C° 0 mm 4 m/S 747 mmHg 42%
    18:00 +17°C° 0 mm 4 m/S 746 mmHg 44%
    19:00 +15°C° 0 mm 4 m/S 746 mmHg 46%
    20:00 +15°C° 0 mm 4 m/S 746 mmHg 48%
    21:00 +15°C° 0 mm 4 m/S 745 mmHg 52%
    22:00 +15°C° 0 mm 5 m/S 744 mmHg 55%
    23:00 +16°C° 0 mm 5 m/S 744 mmHg 59%

    25 September, Dienstag

    Zeit Temperatur Niederschläge Wind Luftdruck Luftfeuchtigkeit
    00:00 +16°C° 0 mm 5 m/S 743 mmHg 66%
    01:00 +16°C° 0 mm 5 m/S 743 mmHg 73%
    02:00 +16°C° 0 mm 5 m/S 743 mmHg 80%
    03:00 +16°C° 0 mm 5 m/S 743 mmHg 79%
    04:00 +16°C° 0 mm 5 m/S 743 mmHg 78%
    05:00 +15°C° 0 mm 5 m/S 742 mmHg 77%
    06:00 +16°C° 0.1 mm 5 m/S 743 mmHg 74%
    07:00 +16°C° 0.1 mm 5 m/S 743 mmHg 71%
    08:00 +16°C° 0.1 mm 5 m/S 743 mmHg 68%
    09:00 +16°C° 0.1 mm 5 m/S 744 mmHg 63%
    10:00 +16°C° 0.1 mm 5 m/S 744 mmHg 59%
    11:00 +16°C° 0.1 mm 5 m/S 744 mmHg 55%
    12:00 +16°C° 0 mm 5 m/S 744 mmHg 51%
    13:00 +16°C° 0 mm 5 m/S 744 mmHg 48%
    14:00 +16°C° 0 mm 5 m/S 745 mmHg 44%
    15:00 +16°C° 0 mm 5 m/S 745 mmHg 44%
    16:00 +17°C° 0 mm 4 m/S 745 mmHg 44%
    17:00 +17°C° 0 mm 4 m/S 746 mmHg 44%
    18:00 +15°C° 0 mm 4 m/S 746 mmHg 45%
    19:00 +15°C° 0 mm 4 m/S 747 mmHg 46%
    20:00 +16°C° 0 mm 3 m/S 747 mmHg 48%
    21:00 +14°C° 0 mm 3 m/S 747 mmHg 48%
    22:00 +14°C° 0 mm 3 m/S 748 mmHg 49%
    23:00 +13°C° 0 mm 3 m/S 748 mmHg 50%
    Mehr zeigen